Location: Austin
(30.3000°N, 97.7500°W)
Time: 12:18:25
(UTC-05:00)

Helios 1A - Pass Details

Date: 05 September 2024
Orbit: 570 x 580 km, 98.3° (Epoch: 30 March)

Event Time Altitude Azimuth Distance (km) Brightness Sun altitude
Rises 20:27:57 0° 14° (NNE) 2,773 6.4 -9.3°
Reaches altitude 10° 20:30:06 10° 17° (NNE) 1,872 5.5 -9.8°
Maximum altitude 20:34:09 73° 102° (ESE) 597 2.8 -10.6°
Drops below altitude 10° 20:38:10 10° 187° (S) 1,859 5.4 -11.4°
Sets 20:40:18 0° 189° (S) 2,752 6.3 -11.9°
